Location: Newark
(39.5667°N, 8.9833°E)
Time: 22:31:51
(UTC+00:00)

Vanguard 1 Rocket - Visible Passes

Search period start: 21 October 2019 00:00
Search period end: 31 October 2019 00:00
Orbit: 650 x 4226 km, 34.3° (Epoch: 20 October)

Date Brightness Start Highest point End Pass type
(mag) Time Alt. Az. Time Alt. Az. Time Alt. Az.
21 Oct 11.6 16:57:48 10° W 17:17:56 31° SW 17:35:19 10° S visible
22 Oct 11.9 18:22:37 10° W 18:32:05 13° WSW 18:40:44 10° SW visible
23 Oct 11.8 17:01:31 10° W 17:19:26 25° SW 17:35:40 10° S visible
25 Oct 12.0 17:06:07 10° W 17:20:59 19° SW 17:35:02 10° SSW visible
27 Oct 12.2 17:12:34 10° WSW 17:22:37 14° SW 17:32:29 10° SSW visible
29 Oct 10.6 05:00:34 10° SSE 05:03:31 12° SE 05:07:04 10° ESE visible
